When you browse on this site, cookies collect data to enhance your experience and personalize the content and advertising you see.
Visit our Privacy Policy to learn more. By continuing to use the site, you agree to this use of cookies and data.
  • In Hungary
  • List of Countries
  • For 7 days
  • Water Temperature
  • Weather Map
  • News
  • Weather Widgets
  • user-avatar
    Login

    Hourly Weather Ngo

    Today, 14 November, Thursday

    Time Temperature Precipitation Wind Pressure Humidity
    00:00 +23°C° 0 mm 1 mps 707 mmHg 92%
    01:00 +21°C° 0 mm 0 mps 707 mmHg 92%
    02:00 +21°C° 0 mm 0 mps 707 mmHg 92%
    03:00 +21°C° 0 mm 0 mps 707 mmHg 92%
    04:00 +21°C° 0 mm 0 mps 707 mmHg 92%
    05:00 +23°C° 0 mm 1 mps 707 mmHg 91%
    06:00 +24°C° 0 mm 1 mps 708 mmHg 91%
    07:00 +24°C° 0 mm 1 mps 709 mmHg 90%
    08:00 +26°C° 0.5 mm 1 mps 709 mmHg 85%
    09:00 +28°C° 0.5 mm 1 mps 709 mmHg 79%
    10:00 +29°C° 0.5 mm 2 mps 709 mmHg 74%
    11:00 +30°C° 0.5 mm 2 mps 708 mmHg 69%
    12:00 +31°C° 0.5 mm 2 mps 707 mmHg 64%
    13:00 +31°C° 0.5 mm 2 mps 707 mmHg 59%
    14:00 +31°C° 0.7 mm 2 mps 706 mmHg 63%
    15:00 +30°C° 0.7 mm 1 mps 706 mmHg 67%
    16:00 +30°C° 0.7 mm 1 mps 705 mmHg 71%
    17:00 +28°C° 1.4 mm 1 mps 706 mmHg 77%
    18:00 +25°C° 1.4 mm 0 mps 707 mmHg 82%
    19:00 +23°C° 1.4 mm 0 mps 707 mmHg 88%
    20:00 +23°C° 0.7 mm 0 mps 708 mmHg 89%
    21:00 +22°C° 0.7 mm 0 mps 708 mmHg 89%
    22:00 +22°C° 0.7 mm 0 mps 708 mmHg 90%
    23:00 +22°C° 0.6 mm 0 mps 708 mmHg 91%

    Tomorrow, 15 November, Friday

    Time Temperature Precipitation Wind Pressure Humidity
    00:00 +22°C° 0.6 mm 0 mps 708 mmHg 93%
    01:00 +21°C° 0.6 mm 0 mps 707 mmHg 94%
    02:00 +21°C° 0.3 mm 0 mps 707 mmHg 94%
    03:00 +21°C° 0.3 mm 0 mps 707 mmHg 94%
    04:00 +23°C° 0.3 mm 1 mps 707 mmHg 94%
    05:00 +23°C° 0.4 mm 1 mps 707 mmHg 94%
    06:00 +23°C° 0.4 mm 1 mps 708 mmHg 94%
    07:00 +24°C° 0.4 mm 1 mps 708 mmHg 95%
    08:00 +25°C° 0.2 mm 1 mps 708 mmHg 91%
    09:00 +26°C° 0.2 mm 1 mps 708 mmHg 87%
    10:00 +27°C° 0.2 mm 1 mps 709 mmHg 83%
    11:00 +29°C° 0.7 mm 1 mps 708 mmHg 76%
    12:00 +30°C° 0.7 mm 1 mps 707 mmHg 69%
    13:00 +30°C° 0.7 mm 0 mps 707 mmHg 62%
    14:00 +31°C° 1 mm 1 mps 706 mmHg 66%
    15:00 +30°C° 1 mm 1 mps 706 mmHg 69%
    16:00 +30°C° 1 mm 1 mps 705 mmHg 73%
    17:00 +28°C° 0.8 mm 1 mps 706 mmHg 79%
    18:00 +26°C° 0.8 mm 1 mps 706 mmHg 84%
    19:00 +25°C° 0.8 mm 1 mps 706 mmHg 90%
    20:00 +25°C° 0.5 mm 1 mps 707 mmHg 91%
    21:00 +24°C° 0.5 mm 1 mps 707 mmHg 92%
    22:00 +24°C° 0.5 mm 1 mps 707 mmHg 93%
    23:00 +24°C° 0 mm 1 mps 707 mmHg 93%

    Day after tomorrow, 16 November, Saturday

    Time Temperature Precipitation Wind Pressure Humidity
    00:00 +23°C° 0 mm 1 mps 707 mmHg 94%
    01:00 +23°C° 0 mm 2 mps 706 mmHg 94%
    02:00 +23°C° 0 mm 1 mps 706 mmHg 94%
    03:00 +23°C° 0 mm 1 mps 706 mmHg 94%
    04:00 +23°C° 0 mm 1 mps 706 mmHg 95%
    05:00 +23°C° 0 mm 2 mps 707 mmHg 93%
    06:00 +24°C° 0 mm 2 mps 707 mmHg 92%
    07:00 +24°C° 0 mm 2 mps 708 mmHg 91%
    08:00 +26°C° 1.5 mm 2 mps 708 mmHg 87%
    09:00 +27°C° 1.5 mm 1 mps 708 mmHg 83%
    10:00 +28°C° 1.5 mm 1 mps 709 mmHg 79%
    11:00 +28°C° 1.9 mm 2 mps 708 mmHg 79%
    12:00 +29°C° 1.9 mm 2 mps 707 mmHg 78%
    13:00 +29°C° 1.9 mm 2 mps 706 mmHg 78%
    14:00 +28°C° 0.9 mm 2 mps 706 mmHg 80%
    15:00 +28°C° 0.9 mm 2 mps 706 mmHg 82%
    16:00 +27°C° 0.9 mm 2 mps 705 mmHg 84%
    17:00 +26°C° 1.1 mm 2 mps 706 mmHg 87%
    18:00 +25°C° 1.1 mm 2 mps 706 mmHg 90%
    19:00 +24°C° 1.1 mm 2 mps 706 mmHg 93%
    20:00 +24°C° 0.1 mm 2 mps 707 mmHg 93%
    21:00 +24°C° 0.1 mm 2 mps 707 mmHg 93%
    22:00 +24°C° 0.1 mm 2 mps 707 mmHg 94%
    23:00 +24°C° 0 mm 2 mps 707 mmHg 94%

    17 November, Sunday

    Time Temperature Precipitation Wind Pressure Humidity
    00:00 +23°C° 0 mm 2 mps 707 mmHg 94%
    01:00 +23°C° 0 mm 2 mps 706 mmHg 94%
    02:00 +23°C° 0 mm 2 mps 706 mmHg 94%
    03:00 +23°C° 0 mm 2 mps 706 mmHg 95%
    04:00 +23°C° 0 mm 1 mps 706 mmHg 95%
    05:00 +23°C° 0 mm 2 mps 707 mmHg 93%
    06:00 +24°C° 0 mm 2 mps 707 mmHg 92%
    07:00 +24°C° 0 mm 2 mps 708 mmHg 90%
    08:00 +26°C° 0.4 mm 2 mps 708 mmHg 85%
    09:00 +27°C° 0.4 mm 2 mps 708 mmHg 79%
    10:00 +29°C° 0.4 mm 2 mps 709 mmHg 74%
    11:00 +29°C° 0.9 mm 2 mps 708 mmHg 71%
    12:00 +30°C° 0.9 mm 2 mps 707 mmHg 69%
    13:00 +30°C° 0.9 mm 2 mps 706 mmHg 66%
    14:00 +30°C° 0.9 mm 2 mps 706 mmHg 70%
    15:00 +29°C° 0.9 mm 1 mps 706 mmHg 74%
    16:00 +29°C° 0.9 mm 1 mps 705 mmHg 78%
    17:00 +27°C° 0.5 mm 1 mps 706 mmHg 82%
    18:00 +26°C° 0.5 mm 1 mps 706 mmHg 86%
    19:00 +25°C° 0.5 mm 1 mps 707 mmHg 90%
    20:00 +25°C° 0 mm 1 mps 707 mmHg 90%
    21:00 +24°C° 0 mm 1 mps 707 mmHg 91%
    22:00 +24°C° 0 mm 1 mps 708 mmHg 91%
    23:00 +24°C° 0.6 mm 1 mps 707 mmHg 92%

    18 November, Monday

    Time Temperature Precipitation Wind Pressure Humidity
    00:00 +24°C° 0.6 mm 1 mps 707 mmHg 92%
    01:00 +21°C° 0.6 mm 0 mps 707 mmHg 93%
    02:00 +23°C° 0.7 mm 1 mps 707 mmHg 94%
    03:00 +23°C° 0.7 mm 1 mps 707 mmHg 95%
    04:00 +22°C° 0.7 mm 1 mps 707 mmHg 96%
    05:00 +23°C° 0.8 mm 1 mps 707 mmHg 95%
    06:00 +23°C° 0.8 mm 1 mps 708 mmHg 94%
    07:00 +24°C° 0.8 mm 1 mps 709 mmHg 93%
    08:00 +25°C° 1.5 mm 1 mps 709 mmHg 90%
    09:00 +26°C° 1.5 mm 2 mps 709 mmHg 86%
    10:00 +27°C° 1.5 mm 2 mps 709 mmHg 82%
    11:00 +27°C° 2.3 mm 2 mps 709 mmHg 85%
    12:00 +26°C° 2.3 mm 1 mps 708 mmHg 88%
    13:00 +25°C° 2.3 mm 1 mps 707 mmHg 91%
    14:00 +25°C° 0.9 mm 1 mps 707 mmHg 91%
    15:00 +24°C° 0.9 mm 2 mps 706 mmHg 92%
    16:00 +24°C° 0.9 mm 2 mps 706 mmHg 93%
    17:00 +24°C° 0 mm 2 mps 706 mmHg 93%
    18:00 +23°C° 0 mm 1 mps 707 mmHg 93%
    19:00 +23°C° 0 mm 1 mps 707 mmHg 93%
    20:00 +23°C° 0 mm 1 mps 708 mmHg 92%
    21:00 +21°C° 0 mm 0 mps 708 mmHg 91%
    22:00 +21°C° 0 mm 0 mps 708 mmHg 90%
    23:00 +23°C° 0 mm 1 mps 708 mmHg 90%

    19 November, Tuesday

    Time Temperature Precipitation Wind Pressure Humidity
    00:00 +23°C° 0 mm 1 mps 708 mmHg 90%
    01:00 +22°C° 0 mm 1 mps 708 mmHg 90%
    02:00 +22°C° 0 mm 1 mps 707 mmHg 91%
    03:00 +22°C° 0 mm 1 mps 707 mmHg 91%
    04:00 +22°C° 0 mm 1 mps 707 mmHg 92%
    05:00 +23°C° 0 mm 1 mps 708 mmHg 91%
    06:00 +23°C° 0 mm 1 mps 709 mmHg 90%
    07:00 +23°C° 0 mm 1 mps 709 mmHg 90%
    08:00 +24°C° 0.4 mm 1 mps 709 mmHg 86%
    09:00 +26°C° 0.4 mm 1 mps 710 mmHg 83%
    10:00 +27°C° 0.4 mm 2 mps 710 mmHg 80%
    11:00 +26°C° 1.1 mm 2 mps 709 mmHg 82%
    12:00 +26°C° 1.1 mm 3 mps 709 mmHg 85%
    13:00 +25°C° 1.1 mm 3 mps 708 mmHg 88%
    14:00 +25°C° 0 mm 2 mps 708 mmHg 87%
    15:00 +25°C° 0 mm 2 mps 707 mmHg 87%
    16:00 +25°C° 0 mm 1 mps 707 mmHg 86%
    17:00 +24°C° 0 mm 1 mps 707 mmHg 89%
    18:00 +24°C° 0 mm 1 mps 707 mmHg 91%
    19:00 +23°C° 0 mm 1 mps 707 mmHg 93%
    20:00 +23°C° 0 mm 1 mps 707 mmHg 93%
    21:00 +23°C° 0 mm 1 mps 708 mmHg 93%
    22:00 +23°C° 0 mm 1 mps 708 mmHg 93%
    23:00 +23°C° 0 mm 1 mps 708 mmHg 93%
    Show more